Regional Weather Roundup
Issued by NWS

Home | Current Version | Previous Version | Graphics & Text | Print | Product List | Glossary Off
Versions: 1 2 3 4 5 6 7 8 9 10 11 12 13 14 15 16 17 18 19 20 21 22 23 24 25 26 27 28 29 30 31 32 33 34 35 36 37 38 39 40 41 42 43 44 45 46 47 48 49 50

000
ASUS43 KTOP 281659
RWRKS

WEATHER ROUNDUP FOR KANSAS
NATIONAL WEATHER SERVICE GOODLAND KS
1200 PM CDT FRI AUG 28 2015

NOTE:  "FAIR" INDICATES FEW OR NO CLOUDS BELOW 12,000 FEET WITH NO
SIGNIFICANT WEATHER AND/OR OBSTRUCTIONS TO VISIBILITY.

KSZ001>006-013>018-027>032-041>047-281800-
NORTHWEST KANSAS

CITY           SKY/WX    TMP DP  RH WIND       PRES   REMARKS
GOODLAND       SUNNY     85  50  29 NW13G21   30.08S
HAYS           SUNNY     84  61  45 NW13      29.96S
HILL CITY      SUNNY     84  61  45 N15       29.99R
RUSSELL        SUNNY     84  67  56 NW13      29.93R
$$

KSZ061>065-074>080-084>089-281800-
SOUTHWEST KANSAS

CITY           SKY/WX    TMP DP  RH WIND       PRES   REMARKS
DODGE CITY     SUNNY     82  58  43 NW15G23   30.02S
ELKHART          N/A     83  61  47 N5          N/A
GARDEN CITY    SUNNY     82  57  42 NW9       30.05R
GREAT BEND     MOSUNNY   82  66  57 NW10      29.95S
LIBERAL        SUNNY     84  63  48 N9        30.08R
$$

KSZ066>073-081>083-090>101-281800-
SOUTHEAST KANSAS

CITY           SKY/WX    TMP DP  RH WIND       PRES   REMARKS
CHANUTE        LGT RAIN  69  66  90 S15       30.00F
COFFEYVILLE    CLOUDY    70  65  84 SE9       30.00F
HUTCHINSON     SUNNY     84  68  58 W10       29.94S
NEWTON         SUNNY     81  64  57 S20       29.97R
WICHITA INTL   MOSUNNY   80  67  64 S15       29.95R
WICHITA JABRA  MOSUNNY   79  67  66 S15G23    29.95S
WINFIELD       CLOUDY    78  66  66 S15       29.98S
$$

KSZ007>012-019>026-033>040-048>060-102>105-281800-
NORTHEAST KANSAS

CITY           SKY/WX    TMP DP  RH WIND       PRES   REMARKS
CONCORDIA      CLOUDY    77  69  76 NW9       29.91R
EMPORIA        MOSUNNY   78  68  71 S18G29    29.94S
LAWRENCE       CLOUDY    73  67  81 S17G23    29.95S
MANHATTAN      MOSUNNY   84  69  60 SW16G29   29.88F
OLATHE IND     CLOUDY    70  66  87 S15       29.98F
OLATHE EXE     CLOUDY    70  65  84 S15G21    29.97F
SALINA         SUNNY     84  69  60 SW7       29.89F
TOPEKA BILLARD PTSUNNY   79  68  69 S13       29.92F
TOPEKA FORBES  MOSUNNY   79  68  69 S15G24    29.92F
$$


USA.gov is the U.S. government's official web portal to all federal, state and local government web resources and services.